GMT,Max TemperatureF,Mean TemperatureF,Min TemperatureF,Max Dew PointF,MeanDew PointF,Min DewpointF,Max Humidity, Mean Humidity, Min Humidity, Max Sea Level PressureIn, Mean Sea Level PressureIn, Min Sea Level PressureIn, Max VisibilityMiles, Mean VisibilityMiles, Min VisibilityMiles, Max Wind SpeedMPH, Mean Wind SpeedMPH, Max Gust SpeedMPH,PrecipitationIn, CloudCover, Events, WindDirDegrees
2012-11-1,50,46,42,41,39,36,87,74,62,29.15,29.00,28.88,6,6,4,37,23,50,0.00,4,Rain-Thunderstorm,266
2012-11-2,50,48,46,43,41,39,87,74,66,29.42,29.35,29.30,6,6,6,29,19,46,0.00,3,Rain,243
2012-11-3,51,48,46,41,39,37,81,67,62,29.53,29.49,29.42,6,6,6,24,19,40,0.00,3,Rain-Thunderstorm,252
2012-11-4,51,48,44,45,42,39,87,76,62,29.42,29.37,29.30,6,6,4,31,23,44,0.00,3,Rain,249
2012-11-5,48,46,44,45,41,36,93,80,66,29.89,29.71,29.53,6,6,2,16,9,,0.00,4,Rain-Hail-Thunderstorm,32
2012-11-6,51,48,46,45,42,39,76,74,71,30.27,30.24,30.15,6,6,6,18,11,,0.00,2,,303
2012-11-7,51,50,50,45,44,43,82,78,76,30.39,30.35,30.33,6,6,6,15,12,,0.00,6,,267
2012-11-8,53,52,50,50,46,41,100,82,67,30.18,30.14,30.09,6,6,6,50,9,,0.00,6,,271
2012-11-9,50,49,48,45,43,41,82,77,76,29.95,29.83,29.71,6,6,6,17,13,,0.00,4,,199
2012-11-10,50,48,46,46,44,39,93,82,71,29.50,29.47,29.44,6,6,6,15,9,,0.00,3,Rain,275
2012-11-11,51,48,44,43,39,37,76,71,66,30.09,29.96,29.83,6,6,6,10,8,,0.00,1,,317
2012-11-12,55,52,50,55,51,45,100,95,76,30.24,30.20,30.18,6,3,1,22,17,33,0.00,6,Rain,221
2012-11-13,55,53,51,55,53,50,100,96,82,30.36,30.34,30.33,6,6,6,16,10,,0.00,4,Fog-Rain,179
2012-11-14,51,48,46,46,45,43,93,84,76,30.27,30.22,30.18,6,6,6,16,13,,0.00,1,,96
2012-11-15,48,46,44,48,46,45,100,97,87,30.18,30.14,30.09,5,3,2,12,8,,0.00,6,,104
2012-11-16,53,50,48,54,51,48,100,94,88,29.98,29.89,29.80,6,6,2,140,15,,0.00,2,Rain,150
2012-11-17,53,52,50,54,48,45,100,89,82,29.83,29.79,29.74,6,6,6,14,9,,0.00,5,Rain,326
2012-11-18,50,48,46,39,37,34,71,64,58,30.01,29.98,29.98,6,6,6,8,5,,0.00,1,,69
2012-11-19,53,50,48,48,44,39,88,80,71,29.86,29.84,29.83,6,6,6,30,25,39,0.00,1,Rain,182
2012-11-20,55,54,53,55,53,50,100,94,82,29.80,29.77,29.77,6,5,2,32,25,46,0.00,6,Rain,177
2012-11-21,53,52,50,52,46,43,100,83,76,29.98,29.82,29.56,6,6,6,34,25,47,0.00,2,Rain,259
2012-11-22,55,54,53,50,48,45,88,80,67,29.98,29.89,29.77,6,6,6,50,37,66,0.00,1,,187
2012-11-23,51,50,48,45,44,43,82,79,76,29.98,29.92,29.86,6,6,6,13,9,,0.00,2,Rain,211
2012-11-24,51,50,50,52,50,48,100,99,88,29.86,29.70,29.42,6,4,2,28,20,39,0.00,6,Rain,123
2012-11-25,53,52,50,48,46,43,88,78,71,29.83,29.78,29.68,6,6,6,34,26,50,0.00,5,Rain,208
2012-11-26,50,48,46,45,43,41,93,84,76,29.56,29.48,29.42,6,6,6,25,18,43,0.00,5,Rain,284
2012-11-27,48,46,44,45,42,41,93,83,76,29.74,29.65,29.56,6,6,6,26,18,39,0.00,6,Rain,6
2012-11-28,44,44,44,37,37,36,76,75,71,29.95,29.93,29.89,6,6,6,24,21,37,0.00,6,Rain,8
2012-11-29,42,42,41,36,35,34,76,76,76,29.98,29.93,29.89,6,6,6,16,12,,0.00,5,,353
2012-11-30,44,42,39,34,33,32,75,68,61,29.92,29.88,29.83,6,6,6,8,4,,0.00,1,,357